,,Stat5,,Stat1,,Stat2,,Stat3,,Stat4,,Wind1,,Wind1,
time,status,PA1M_AVG,status,PR1M_SUM,status,RH1M_AVG,status,SR1M_AVG,status,TA1M_AVG,status,W1dAve1m,status,W1sAve1m,
2002-11-08, 00:00:00,VALID,918.768,VALID,0,VALID,99.4166,VALID,-0.101885,VALID,19.7641,VALID,352,VALID,0.529772,
2002-11-08, 00:01:00,VALID,918.76,VALID,0,VALID,99.4344,VALID,-0.0849042,VALID,19.7539,VALID,9,VALID,0.672931,
2002-11-08, 00:02:00,VALID,918.779,VALID,0,VALID,99.4446,VALID,-0.101885,VALID,19.7636,VALID,14,VALID,0.947716,
2002-11-08, 00:03:00,VALID,918.778,VALID,0,VALID,99.4433,VALID,-0.101885,VALID,19.7765,VALID,21,VALID,0.989583,
2002-11-08, 00:04:00,VALID,918.759,VALID,0,VALID,99.4458,VALID,-0.0849042,VALID,19.78,VALID,28,VALID,0.923047,
2002-11-08, 00:05:00,VALID,918.753,VALID,0,VALID,99.4611,VALID,-0.101885,VALID,19.7862,VALID,22,VALID,0.93817,
2002-11-08, 00:06:00,VALID,918.745,VALID,0,VALID,99.4725,VALID,-0.101885,VALID,19.7927,VALID,13,VALID,1.19211,
2002-11-08, 00:07:00,VALID,918.744,VALID,0,VALID,99.4573,VALID,-0.101885,VALID,19.7929,VALID,12,VALID,0.992424,
2002-11-08, 00:08:00,VALID,918.751,VALID,0,VALID,99.4662,VALID,-0.101885,VALID,19.8028,VALID,20,VALID,0.898655,
2002-11-08, 00:09:00,VALID,918.75,VALID,0,VALID,99.4649,VALID,-0.101885,VALID,19.8185,VALID,12,VALID,1.13613,
2002-11-08, 00:10:00,VALID,918.748,VALID,0,VALID,99.4598,VALID,-0.101885,VALID,19.7954,VALID,12,VALID,1.49219,
2002-11-08, 00:11:00,VALID,918.735,VALID,0,VALID,99.4598,VALID,-0.118866,VALID,19.7867,VALID,13,VALID,1.75689,
2002-11-08, 00:12:00,VALID,918.726,VALID,0,VALID,99.4522,VALID,-0.101885,VALID,19.7733,VALID,8,VALID,1.64063,
2002-11-08, 00:13:00,VALID,918.714,VALID,0,VALID,99.4636,VALID,-0.101885,VALID,19.7698,VALID,16,VALID,1.3978,
2002-11-08, 00:14:00,VALID,918.705,VALID,0,VALID,99.4585,VALID,-0.101885,VALID,19.777,VALID,12,VALID,1.55813,
2002-11-08, 00:15:00,VALID,918.698,VALID,0,VALID,99.4713,VALID,-0.0849042,VALID,19.7633,VALID,9,VALID,1.61699,
2002-11-08, 00:16:00,VALID,918.684,VALID,0,VALID,99.4687,VALID,-0.101885,VALID,19.7576,VALID,360,VALID,1.28442,
2002-11-08, 00:17:00,VALID,918.695,VALID,0,VALID,99.4713,VALID,-0.101885,VALID,19.7546,VALID,353,VALID,1.22917,
2002-11-08, 00:18:00,VALID,918.684,VALID,0,VALID,99.4687,VALID,-0.101885,VALID,19.7678,VALID,350,VALID,0.952148,
2002-11-08, 00:19:00,VALID,918.706,VALID,0,VALID,99.4649,VALID,-0.0849042,VALID,19.7407,VALID,324,VALID,0.888021,
2002-11-08, 00:20:00,VALID,918.693,VALID,0,VALID,99.4713,VALID,-0.0679233,VALID,19.7315,VALID,344,VALID,1.20334,
2002-11-08, 00:21:00,VALID,918.674,VALID,0,VALID,99.4764,VALID,-0.0849042,VALID,19.7246,VALID,323,VALID,0.722852,
2002-11-08, 00:22:00,VALID,918.648,VALID,0,VALID,99.4776,VALID,-0.101885,VALID,19.7213,VALID,345,VALID,0.736269,
2002-11-08, 00:23:00,VALID,918.648,VALID,0,VALID,99.4827,VALID,-0.0849042,VALID,19.7283,VALID,356,VALID,0.673713,
2002-11-08, 00:24:00,VALID,918.638,VALID,0,VALID,99.4903,VALID,-0.0679233,VALID,19.7343,VALID,7,VALID,0.127003,
2002-11-08, 00:25:00,VALID,918.666,VALID,0,VALID,99.4967,VALID,-0.101885,VALID,19.7539,VALID,250,VALID,0.530194,
2002-11-08, 00:26:00,VALID,918.665,VALID,0,VALID,99.4967,VALID,-0.101885,VALID,19.7663,VALID,214,VALID,0.442555,
2002-11-08, 00:27:00,VALID,918.676,VALID,0,VALID,99.4967,VALID,-0.0849042,VALID,19.7765,VALID,218,VALID,0.3748,
2002-11-08, 00:28:00,VALID,918.673,VALID,0,VALID,99.5031,VALID,-0.0849042,VALID,19.7862,VALID,225,VALID,0.116343,
2002-11-08, 00:29:00,VALID,918.679,VALID,0,VALID,99.5094,VALID,-0.0339617,VALID,19.8023,VALID,228,VALID,0.159722,
2002-11-08, 00:30:00,VALID,918.691,VALID,0,VALID,99.5158,VALID,-0.101885,VALID,19.8317,VALID,225,VALID,0.09375,
2002-11-08, 00:31:00,VALID,918.7,VALID,0,VALID,99.5107,VALID,-0.101885,VALID,19.8344,VALID,220,VALID,0.134233,
2002-11-08, 00:32:00,VALID,918.706,VALID,0,VALID,99.512,VALID,-0.0509425,VALID,19.8406,VALID,230,VALID,0.0251736,
2002-11-08, 00:33:00,VALID,918.7,VALID,0,VALID,99.517,VALID,-0.0679233,VALID,19.8436,VALID,230,VALID,0,
2002-11-08, 00:34:00,VALID,918.689,VALID,0,VALID,99.517,VALID,-0.0849042,VALID,19.8635,VALID,230,VALID,0,
2002-11-08, 00:35:00,VALID,918.678,VALID,0,VALID,99.5031,VALID,0,VALID,19.8458,VALID,230,VALID,0.23966,
2002-11-08, 00:36:00,VALID,918.656,VALID,0,VALID,99.5005,VALID,0.0169808,VALID,19.817,VALID,230,VALID,0.289463,
2002-11-08, 00:37:00,VALID,918.632,VALID,0,VALID,99.4942,VALID,0.0509425,VALID,19.7845,VALID,232,VALID,0.422086,
2002-11-08, 00:38:00,VALID,918.63,VALID,0,VALID,99.4992,VALID,0,VALID,19.778,VALID,233,VALID,0.267004,
2002-11-08, 00:39:00,VALID,918.594,VALID,0,VALID,99.5094,VALID,0.0169808,VALID,19.7845,VALID,233,VALID,0.0488782,
2002-11-08, 00:40:00,VALID,918.585,VALID,0,VALID,99.5005,VALID,0,VALID,19.8108,VALID,233,VALID,0.101985,
2002-11-08, 00:41:00,VALID,918.546,VALID,0,VALID,99.5183,VALID,0,VALID,19.8033,VALID,233,VALID,0.00260417,
2002-11-08, 00:42:00,VALID,918.523,VALID,0,VALID,99.5158,VALID,0.0339617,VALID,19.8076,VALID,256,VALID,0.282031,
2002-11-08, 00:43:00,VALID,918.5,VALID,0,VALID,99.5056,VALID,0.0339617,VALID,19.7815,VALID,278,VALID,0.390152,
2002-11-08, 00:44:00,VALID,918.464,VALID,0,VALID,99.5107,VALID,0.0169808,VALID,19.7656,VALID,278,VALID,0.230035,
2002-11-08, 00:45:00,VALID,918.431,VALID,0,VALID,99.5145,VALID,0.0339617,VALID,19.7686,VALID,278,VALID,0.00078125,
2002-11-08, 00:46:00,VALID,918.394,VALID,0,VALID,99.5043,VALID,0.0509425,VALID,19.7586,VALID,278,VALID,0.0350379,
2002-11-08, 00:47:00,VALID,918.362,VALID,0,VALID,99.512,VALID,0,VALID,19.7651,VALID,278,VALID,0.0473346,
2002-11-08, 00:48:00,VALID,918.334,VALID,0,VALID,99.5234,VALID,0,VALID,19.7748,VALID,278,VALID,0.0220353,
2002-11-08, 00:49:00,VALID,918.329,VALID,0,VALID,99.5298,VALID,0,VALID,19.7884,VALID,278,VALID,0.0154139,
2002-11-08, 00:50:00,VALID,918.298,VALID,0,VALID,99.5259,VALID,-0.101885,VALID,19.7927,VALID,291,VALID,0.178309,
2002-11-08, 00:51:00,VALID,918.293,VALID,0,VALID,99.5374,VALID,-0.101885,VALID,19.8192,VALID,329,VALID,0.277845,
2002-11-08, 00:52:00,VALID,918.284,VALID,0,VALID,99.5425,VALID,-0.0849042,VALID,19.8215,VALID,330,VALID,0.0230152,
2002-11-08, 00:53:00,VALID,918.262,VALID,0,VALID,99.5387,VALID,-0.0679233,VALID,19.8212,VALID,330,VALID,0,
2002-11-08, 00:54:00,VALID,918.259,VALID,0,VALID,99.5259,VALID,-0.0849042,VALID,19.8282,VALID,330,VALID,0,
2002-11-08, 00:55:00,VALID,918.253,VALID,0,VALID,99.5425,VALID,-0.0849042,VALID,19.8185,VALID,330,VALID,0,
2002-11-08, 00:56:00,VALID,918.232,VALID,0,VALID,99.5247,VALID,-0.0509425,VALID,19.7954,VALID,330,VALID,0,
2002-11-08, 00:57:00,VALID,918.216,VALID,0,VALID,99.5285,VALID,-0.0849042,VALID,19.7892,VALID,330,VALID,0,
2002-11-08, 00:58:00,VALID,918.209,VALID,0,VALID,99.5336,VALID,-0.0679233,VALID,19.7827,VALID,330,VALID,0,
2002-11-08, 00:59:00,VALID,918.164,VALID,0,VALID,99.5387,VALID,-0.0509425,VALID,19.7892,VALID,330,VALID,0.0358456,
2002-11-08, 01:00:00,VALID,918.13,VALID,0,VALID,99.545,VALID,-0.0679233,VALID,19.8021,VALID,330,VALID,0.222356,
2002-11-08, 01:01:00,VALID,918.082,VALID,0,VALID,99.5298,VALID,-0.0509425,VALID,19.7862,VALID,330,VALID,0.089527,
2002-11-08, 01:02:00,VALID,918.059,VALID,0,VALID,99.5361,VALID,-0.0679233,VALID,19.7768,VALID,330,VALID,0,
2002-11-08, 01:03:00,VALID,918.024,VALID,0,VALID,99.5374,VALID,-0.0849042,VALID,19.7857,VALID,330,VALID,0,
2002-11-08, 01:04:00,VALID,917.991,VALID,0,VALID,99.5348,VALID,-0.0849042,VALID,19.7889,VALID,330,VALID,0,
2002-11-08, 01:05:00,VALID,917.97,VALID,0,VALID,99.5412,VALID,0.0169808,VALID,19.7879,VALID,330,VALID,0,
2002-11-08, 01:06:00,VALID,917.952,VALID,0,VALID,99.5298,VALID,0.0169808,VALID,19.7842,VALID,330,VALID,0,
2002-11-08, 01:07:00,VALID,917.943,VALID,0,VALID,99.5399,VALID,0.0169808,VALID,19.7944,VALID,330,VALID,0,
2002-11-08, 01:08:00,VALID,917.926,VALID,0,VALID,99.5412,VALID,0.0169808,VALID,19.7946,VALID,330,VALID,0,
2002-11-08, 01:09:00,VALID,917.922,VALID,0,VALID,99.5387,VALID,0,VALID,19.7976,VALID,330,VALID,0,
2002-11-08, 01:10:00,VALID,917.921,VALID,0,VALID,99.5336,VALID,0,VALID,19.7909,VALID,330,VALID,0,
2002-11-08, 01:11:00,VALID,917.898,VALID,0,VALID,99.5361,VALID,0,VALID,19.7909,VALID,330,VALID,0.115349,
2002-11-08, 01:12:00,VALID,917.881,VALID,0,VALID,99.5336,VALID,0,VALID,19.7944,VALID,330,VALID,0.0344551,
2002-11-08, 01:13:00,VALID,917.864,VALID,0,VALID,99.5399,VALID,0.0169808,VALID,19.7877,VALID,330,VALID,0.0177365,
2002-11-08, 01:14:00,VALID,917.837,VALID,0,VALID,99.5361,VALID,0,VALID,19.7976,VALID,330,VALID,0,
2002-11-08, 01:15:00,VALID,917.811,VALID,0,VALID,99.531,VALID,0,VALID,19.8073,VALID,330,VALID,0.00600962,
2002-11-08, 01:16:00,VALID,917.779,VALID,0,VALID,99.5425,VALID,0,VALID,19.8207,VALID,330,VALID,0.20777,
2002-11-08, 01:17:00,VALID,917.766,VALID,0,VALID,99.5348,VALID,0.0169808,VALID,19.8267,VALID,331,VALID,0.324219,
2002-11-08, 01:18:00,VALID,917.758,VALID,0,VALID,99.5488,VALID,0.0169808,VALID,19.8366,VALID,332,VALID,0.430469,
2002-11-08, 01:19:00,VALID,917.74,VALID,0,VALID,99.5437,VALID,0.0339617,VALID,19.81,VALID,332,VALID,0.14536,
2002-11-08, 01:20:00,VALID,917.727,VALID,0,VALID,99.5412,VALID,0.0169808,VALID,19.7971,VALID,332,VALID,0.0609809,
2002-11-08, 01:21:00,VALID,917.735,VALID,0,VALID,99.5387,VALID,0.0169808,VALID,19.7914,VALID,332,VALID,0.0328125,
2002-11-08, 01:22:00,VALID,917.723,VALID,0,VALID,99.5361,VALID,0,VALID,19.7586,VALID,332,VALID,0,
2002-11-08, 01:23:00,VALID,917.711,VALID,0,VALID,99.5361,VALID,0.0169808,VALID,19.7457,VALID,332,VALID,0.0144761,
2002-11-08, 01:24:00,VALID,917.703,VALID,0,VALID,99.5399,VALID,0.0849042,VALID,19.7457,VALID,332,VALID,0.00160256,
2002-11-08, 01:25:00,VALID,917.68,VALID,0,VALID,99.545,VALID,0.0679233,VALID,19.7358,VALID,332,VALID,0,
2002-11-08, 01:26:00,VALID,917.676,VALID,0,VALID,99.5361,VALID,0.0509425,VALID,19.7355,VALID,332,VALID,0,
2002-11-08, 01:27:00,VALID,917.673,VALID,0,VALID,99.5399,VALID,0,VALID,19.7358,VALID,352,VALID,0.0687099,
2002-11-08, 01:28:00,VALID,917.656,VALID,0,VALID,99.5476,VALID,0.0169808,VALID,19.7554,VALID,22,VALID,0.136824,
2002-11-08, 01:29:00,VALID,917.633,VALID,0,VALID,99.5501,VALID,0.0169808,VALID,19.7524,VALID,315,VALID,0.225043,
2002-11-08, 01:30:00,VALID,917.632,VALID,0,VALID,99.5412,VALID,0.0339617,VALID,19.7524,VALID,239,VALID,0.289648,
2002-11-08, 01:31:00,VALID,917.615,VALID,0,VALID,99.5437,VALID,0.0679233,VALID,19.7524,VALID,239,VALID,0.0655776,
2002-11-08, 01:32:00,VALID,917.603,VALID,0,VALID,99.5552,VALID,0.0339617,VALID,19.7782,VALID,239,VALID,0,
2002-11-08, 01:33:00,VALID,917.591,VALID,0,VALID,99.5488,VALID,0.0169808,VALID,19.7748,VALID,239,VALID,0,
2002-11-08, 01:34:00,VALID,917.595,VALID,0,VALID,99.5514,VALID,-0.0169808,VALID,19.7917,VALID,239,VALID,0,
2002-11-08, 01:35:00,VALID,917.587,VALID,0,VALID,99.5399,VALID,-0.0509425,VALID,19.7666,VALID,239,VALID,0,
2002-11-08, 01:36:00,VALID,917.574,VALID,0,VALID,99.5527,VALID,-0.0679233,VALID,19.7507,VALID,239,VALID,0,
2002-11-08, 01:37:00,VALID,917.563,VALID,0,VALID,99.5437,VALID,-0.0339617,VALID,19.7343,VALID,239,VALID,0.17272,
2002-11-08, 01:38:00,VALID,917.56,VALID,0,VALID,99.5412,VALID,-0.0679233,VALID,19.7276,VALID,257,VALID,0.603401,
2002-11-08, 01:39:00,VALID,917.547,VALID,0,VALID,99.5336,VALID,-0.0169808,VALID,19.7405,VALID,44,VALID,0.97496,
2002-11-08, 01:40:00,VALID,917.527,VALID,0,VALID,99.5501,VALID,-0.0509425,VALID,19.7308,VALID,41,VALID,0.812922,
2002-11-08, 01:41:00,VALID,917.52,VALID,0,VALID,99.5425,VALID,-0.0339617,VALID,19.7375,VALID,38,VALID,0.919488,
2002-11-08, 01:42:00,VALID,917.515,VALID,0,VALID,99.5539,VALID,-0.0339617,VALID,19.7082,VALID,35,VALID,0.935547,
2002-11-08, 01:43:00,VALID,917.518,VALID,0,VALID,99.5374,VALID,-0.0679233,VALID,19.7022,VALID,29,VALID,0.803741,
2002-11-08, 01:44:00,VALID,917.502,VALID,0,VALID,99.5488,VALID,-0.0679233,VALID,19.7022,VALID,27,VALID,0.827908,
2002-11-08, 01:45:00,VALID,917.497,VALID,0,VALID,99.5488,VALID,-0.0509425,VALID,19.6957,VALID,35,VALID,0.782617,
2002-11-08, 01:46:00,VALID,917.5,VALID,0,VALID,99.545,VALID,-0.0509425,VALID,19.6957,VALID,52,VALID,0.776752,
2002-11-08, 01:47:00,VALID,917.492,VALID,0,VALID,99.5425,VALID,-0.0339617,VALID,19.689,VALID,52,VALID,0.827206,
2002-11-08, 01:48:00,VALID,917.49,VALID,0,VALID,99.5336,VALID,-0.0509425,VALID,19.6791,VALID,56,VALID,0.767228,
2002-11-08, 01:49:00,VALID,917.481,VALID,0.2,VALID,99.5272,VALID,-0.0339617,VALID,19.6731,VALID,66,VALID,0.94299,
2002-11-08, 01:50:00,VALID,917.487,VALID,0,VALID,99.5209,VALID,-0.0339617,VALID,19.6475,VALID,59,VALID,0.570313,
2002-11-08, 01:51:00,VALID,917.49,VALID,0,VALID,99.5272,VALID,-0.0679233,VALID,19.657,VALID,85,VALID,0.75601,
2002-11-08, 01:52:00,VALID,917.489,VALID,0,VALID,99.5221,VALID,-0.0339617,VALID,19.6406,VALID,94,VALID,0.769848,
2002-11-08, 01:53:00,VALID,917.499,VALID,0,VALID,99.5272,VALID,-0.0169808,VALID,19.6239,VALID,98,VALID,0.897352,
2002-11-08, 01:54:00,VALID,917.508,VALID,0.2,VALID,99.5259,VALID,-0.0169808,VALID,19.6274,VALID,114,VALID,0.83418,
2002-11-08, 01:55:00,VALID,917.501,VALID,0,VALID,99.5323,VALID,-0.0169808,VALID,19.6307,VALID,109,VALID,0.72822,
2002-11-08, 01:56:00,VALID,917.507,VALID,0,VALID,99.5361,VALID,-0.0509425,VALID,19.6438,VALID,126,VALID,0.719835,
2002-11-08, 01:57:00,VALID,917.499,VALID,0.2,VALID,99.5399,VALID,-0.0339617,VALID,19.6473,VALID,140,VALID,0.957031,
2002-11-08, 01:58:00,VALID,917.503,VALID,0,VALID,99.5425,VALID,-0.0509425,VALID,19.6466,VALID,141,VALID,0.933712,
2002-11-08, 01:59:00,VALID,917.519,VALID,0,VALID,99.531,VALID,-0.0339617,VALID,19.6533,VALID,127,VALID,0.539063,
2002-11-08, 02:00:00,VALID,917.51,VALID,0.2,VALID,99.5412,VALID,-0.0679233,VALID,19.647,VALID,118,VALID,0.514824,
2002-11-08, 02:01:00,VALID,917.51,VALID,0,VALID,99.5412,VALID,-0.0509425,VALID,19.6475,VALID,137,VALID,0.589105,
2002-11-08, 02:02:00,VALID,917.492,VALID,0,VALID,99.5463,VALID,-0.0679233,VALID,19.6567,VALID,109,VALID,0.264936,
2002-11-08, 02:03:00,VALID,917.508,VALID,0,VALID,99.5501,VALID,-0.0339617,VALID,19.66,VALID,112,VALID,0.145833,
2002-11-08, 02:04:00,VALID,917.504,VALID,0.2,VALID,99.5539,VALID,-0.0509425,VALID,19.6798,VALID,107,VALID,0.537584,
2002-11-08, 02:05:00,VALID,917.475,VALID,0,VALID,99.5552,VALID,-0.0509425,VALID,19.6637,VALID,99,VALID,0.313734,
2002-11-08, 02:06:00,VALID,917.475,VALID,0,VALID,99.5552,VALID,-0.0509425,VALID,19.6538,VALID,97,VALID,0.22207,
2002-11-08, 02:07:00,VALID,917.462,VALID,0,VALID,99.5539,VALID,-0.0339617,VALID,19.6605,VALID,97,VALID,0.00236742,
2002-11-08, 02:08:00,VALID,917.443,VALID,0,VALID,99.5437,VALID,-0.0339617,VALID,19.6662,VALID,101,VALID,0.114583,
2002-11-08, 02:09:00,VALID,917.438,VALID,0.2,VALID,99.5552,VALID,-0.0339617,VALID,19.6667,VALID,120,VALID,0.466797,
2002-11-08, 02:10:00,VALID,917.432,VALID,0,VALID,99.5463,VALID,-0.0509425,VALID,19.6702,VALID,121,VALID,0.318419,
2002-11-08, 02:11:00,VALID,917.44,VALID,0,VALID,99.559,VALID,-0.0339617,VALID,19.66,VALID,125,VALID,0.588695,
2002-11-08, 02:12:00,VALID,917.435,VALID,0,VALID,99.5488,VALID,-0.0849042,VALID,19.6672,VALID,132,VALID,0.575521,
2002-11-08, 02:13:00,VALID,917.43,VALID,0,VALID,99.5514,VALID,-0.0509425,VALID,19.6664,VALID,149,VALID,0.547508,
2002-11-08, 02:14:00,VALID,917.435,VALID,0.2,VALID,99.5616,VALID,-0.0679233,VALID,19.6704,VALID,154,VALID,0.911994,
2002-11-08, 02:15:00,VALID,917.408,VALID,0,VALID,99.545,VALID,-0.0509425,VALID,19.6702,VALID,162,VALID,0.596354,
2002-11-08, 02:16:00,VALID,917.41,VALID,0,VALID,99.5463,VALID,-0.0169808,VALID,19.6734,VALID,149,VALID,0.555321,
2002-11-08, 02:17:00,VALID,917.386,VALID,0,VALID,99.5603,VALID,-0.0679233,VALID,19.6729,VALID,152,VALID,0.482205,
2002-11-08, 02:18:00,VALID,917.372,VALID,0,VALID,99.5577,VALID,-0.0679233,VALID,19.6764,VALID,156,VALID,0.547852,
2002-11-08, 02:19:00,VALID,917.355,VALID,0.2,VALID,99.5603,VALID,-0.0509425,VALID,19.6831,VALID,156,VALID,0.541903,
2002-11-08, 02:20:00,VALID,917.349,VALID,0,VALID,99.5654,VALID,-0.0169808,VALID,19.6863,VALID,155,VALID,0.287326,
2002-11-08, 02:21:00,VALID,917.346,VALID,0,VALID,99.5552,VALID,-0.0509425,VALID,19.6801,VALID,147,VALID,0.79668,
2002-11-08, 02:22:00,VALID,917.34,VALID,0,VALID,99.5501,VALID,-0.0679233,VALID,19.6739,VALID,152,VALID,1.00852,
2002-11-08, 02:23:00,VALID,917.341,VALID,0,VALID,99.5527,VALID,-0.0509425,VALID,19.6637,VALID,138,VALID,0.497243,
2002-11-08, 02:24:00,VALID,917.335,VALID,0.2,VALID,99.5488,VALID,-0.0339617,VALID,19.6572,VALID,134,VALID,0.488582,
2002-11-08, 02:25:00,VALID,917.325,VALID,0,VALID,99.5476,VALID,-0.0509425,VALID,19.6607,VALID,146,VALID,0.774282,
2002-11-08, 02:26:00,VALID,917.321,VALID,0,VALID,99.5577,VALID,-0.0679233,VALID,19.6607,VALID,127,VALID,0.51034,
2002-11-08, 02:27:00,VALID,917.33,VALID,0,VALID,99.5577,VALID,-0.101885,VALID,19.6545,VALID,136,VALID,0.575921,
2002-11-08, 02:28:00,VALID,917.311,VALID,0,VALID,99.5616,VALID,-0.0679233,VALID,19.6411,VALID,106,VALID,0.645693,
2002-11-08, 02:29:00,VALID,917.312,VALID,0.2,VALID,99.5552,VALID,-0.0339617,VALID,19.6341,VALID,109,VALID,0.243056,
2002-11-08, 02:30:00,VALID,917.321,VALID,0,VALID,99.5628,VALID,-0.0679233,VALID,19.6443,VALID,108,VALID,0.0197266,
2002-11-08, 02:31:00,VALID,917.308,VALID,0,VALID,99.5577,VALID,-0.0679233,VALID,19.6379,VALID,111,VALID,0.316525,
2002-11-08, 02:32:00,VALID,917.299,VALID,0,VALID,99.5628,VALID,-0.0679233,VALID,19.6311,VALID,114,VALID,0.809679,
2002-11-08, 02:33:00,VALID,917.29,VALID,0,VALID,99.5666,VALID,-0.101885,VALID,19.6222,VALID,109,VALID,0.608984,
2002-11-08, 02:34:00,VALID,917.283,VALID,0.2,VALID,99.5641,VALID,-0.0849042,VALID,19.615,VALID,105,VALID,0.520597,
2002-11-08, 02:35:00,VALID,917.274,VALID,0,VALID,99.559,VALID,0,VALID,19.5974,VALID,105,VALID,0.246324,
2002-11-08, 02:36:00,VALID,917.259,VALID,0,VALID,99.5692,VALID,0.0509425,VALID,19.6043,VALID,132,VALID,0.263221,
2002-11-08, 02:37:00,VALID,917.257,VALID,0,VALID,99.5755,VALID,0.0679233,VALID,19.6071,VALID,129,VALID,0.238598,
2002-11-08, 02:38:00,VALID,917.254,VALID,0,VALID,99.5794,VALID,0.0509425,VALID,19.6108,VALID,117,VALID,0.575138,
2002-11-08, 02:39:00,VALID,917.253,VALID,0.2,VALID,99.5717,VALID,0.0339617,VALID,19.611,VALID,114,VALID,0.65645,
2002-11-08, 02:40:00,VALID,917.267,VALID,0,VALID,99.5717,VALID,0,VALID,19.5944,VALID,118,VALID,0.671242,
2002-11-08, 02:41:00,VALID,917.27,VALID,0,VALID,99.5794,VALID,0.0339617,VALID,19.5974,VALID,115,VALID,0.614366,
2002-11-08, 02:42:00,VALID,917.273,VALID,0,VALID,99.5806,VALID,0.0849042,VALID,19.5941,VALID,122,VALID,0.594141,
2002-11-08, 02:43:00,VALID,917.282,VALID,0,VALID,99.5768,VALID,0.0169808,VALID,19.5941,VALID,136,VALID,0.856771,
2002-11-08, 02:44:01,VALID,917.274,VALID,0,VALID,99.5679,VALID,0.0169808,VALID,19.5981,VALID,138,VALID,0.878906,
2002-11-08, 02:45:00,VALID,917.296,VALID,0,VALID,99.587,VALID,0.101885,VALID,19.5844,VALID,139,VALID,1.27695,
2002-11-08, 02:46:00,VALID,917.296,VALID,0.2,VALID,99.5819,VALID,0.0339617,VALID,19.5683,VALID,141,VALID,1.32126,
2002-11-08, 02:47:00,VALID,917.313,VALID,0,VALID,99.587,VALID,0.0169808,VALID,19.572,VALID,143,VALID,1.43359,
2002-11-08, 02:48:01,VALID,917.29,VALID,0,VALID,99.5755,VALID,0.0509425,VALID,19.572,VALID,141,VALID,1.53546,
2002-11-08, 02:49:00,VALID,917.288,VALID,0,VALID,99.5819,VALID,-0.0169808,VALID,19.5621,VALID,150,VALID,1.39675,
2002-11-08, 02:50:00,VALID,917.286,VALID,0,VALID,99.5883,VALID,-0.0849042,VALID,19.5633,VALID,142,VALID,1.52482,
2002-11-08, 02:51:00,VALID,917.286,VALID,0,VALID,99.5883,VALID,-0.0849042,VALID,19.567,VALID,150,VALID,1.30669,
2002-11-08, 02:52:00,VALID,917.283,VALID,0.2,VALID,99.5984,VALID,-0.101885,VALID,19.5601,VALID,135,VALID,1.10916,
2002-11-08, 02:53:01,VALID,917.263,VALID,0,VALID,99.5972,VALID,-0.0509425,VALID,19.5603,VALID,148,VALID,1.2921,
2002-11-08, 02:54:00,VALID,917.27,VALID,0,VALID,99.5997,VALID,-0.0849042,VALID,19.5601,VALID,151,VALID,0.983789,
2002-11-08, 02:55:00,VALID,917.255,VALID,0,VALID,99.5972,VALID,-0.0679233,VALID,19.5638,VALID,135,VALID,0.838778,
2002-11-08, 02:56:01,VALID,917.224,VALID,0,VALID,99.5946,VALID,-0.0679233,VALID,19.5606,VALID,129,VALID,0.54579,
2002-11-08, 02:57:00,VALID,917.187,VALID,0,VALID,99.5933,VALID,-0.0509425,VALID,19.5472,VALID,144,VALID,0.713672,
2002-11-08, 02:58:00,VALID,917.165,VALID,0.2,VALID,99.5933,VALID,-0.0849042,VALID,19.5511,VALID,140,VALID,0.352273,
2002-11-08, 02:59:00,VALID,917.139,VALID,0,VALID,99.5997,VALID,-0.101885,VALID,19.5479,VALID,130,VALID,0.111903,
2002-11-08, 03:00:01,VALID,917.122,VALID,0,VALID,99.6022,VALID,-0.0339617,VALID,19.5546,VALID,123,VALID,0.0466747,
2002-11-08, 03:01:00,VALID,917.098,VALID,0,VALID,99.6061,VALID,-0.0509425,VALID,19.5539,VALID,76,VALID,0.236486,
2002-11-08, 03:02:00,VALID,917.081,VALID,0,VALID,99.6111,VALID,-0.0679233,VALID,19.5444,VALID,73,VALID,0.00413603,
2002-11-08, 03:03:01,VALID,917.068,VALID,0,VALID,99.5997,VALID,-0.101885,VALID,19.5571,VALID,73,VALID,0,
2002-11-08, 03:04:00,VALID,917.061,VALID,0.2,VALID,99.6073,VALID,-0.0849042,VALID,19.5506,VALID,73,VALID,0,
2002-11-08, 03:05:01,VALID,917.041,VALID,0,VALID,99.6239,VALID,-0.0509425,VALID,19.5603,VALID,73,VALID,0,
2002-11-08, 03:06:00,VALID,917.029,VALID,0,VALID,99.6111,VALID,-0.0509425,VALID,19.5606,VALID,73,VALID,0,
2002-11-08, 03:07:00,VALID,917.022,VALID,0,VALID,99.615,VALID,-0.0339617,VALID,19.5573,VALID,73,VALID,0.0662879,
2002-11-08, 03:08:01,VALID,917.025,VALID,0,VALID,99.62,VALID,-0.0849042,VALID,19.5603,VALID,137,VALID,0.333767,
2002-11-08, 03:09:00,VALID,917.032,VALID,0.2,VALID,99.6213,VALID,-0.0509425,VALID,19.5417,VALID,157,VALID,0.319727,
2002-11-08, 03:10:00,VALID,917.023,VALID,0,VALID,99.6111,VALID,-0.0849042,VALID,19.5581,VALID,158,VALID,0.0580019,
2002-11-08, 03:11:00,VALID,917.011,VALID,0,VALID,99.615,VALID,-0.0679233,VALID,19.5509,VALID,158,VALID,0.152803,
2002-11-08, 03:12:01,VALID,917.002,VALID,0,VALID,99.6188,VALID,-0.0339617,VALID,19.5578,VALID,158,VALID,0.180288,
2002-11-08, 03:13:00,VALID,917.003,VALID,0.2,VALID,99.6124,VALID,-0.101885,VALID,19.5511,VALID,158,VALID,0.0534206,
2002-11-08, 03:14:00,VALID,917.01,VALID,0,VALID,99.6213,VALID,-0.0849042,VALID,19.5479,VALID,158,VALID,0.0124081,
2002-11-08, 03:15:01,VALID,917.014,VALID,0,VALID,99.6239,VALID,-0.0509425,VALID,19.5477,VALID,158,VALID,0.14363,
2002-11-08, 03:16:00,VALID,917.001,VALID,0.2,VALID,99.6251,VALID,-0.0679233,VALID,19.5514,VALID,158,VALID,0,
2002-11-08, 03:17:01,VALID,916.994,VALID,0,VALID,99.62,VALID,-0.0849042,VALID,19.5412,VALID,158,VALID,0.00108507,
2002-11-08, 03:18:00,VALID,916.982,VALID,0,VALID,99.6251,VALID,-0.0339617,VALID,19.5377,VALID,158,VALID,0.0128906,
2002-11-08, 03:19:00,VALID,916.975,VALID,0,VALID,99.6188,VALID,-0.0339617,VALID,19.5409,VALID,158,VALID,0.0366951,
2002-11-08, 03:20:01,VALID,916.943,VALID,0.2,VALID,99.6239,VALID,-0.0679233,VALID,19.5514,VALID,152,VALID,0.00998264,
2002-11-08, 03:21:00,VALID,916.927,VALID,0,VALID,99.6226,VALID,-0.0339617,VALID,19.5444,VALID,52,VALID,0.307227,
2002-11-08, 03:22:00,VALID,916.924,VALID,0,VALID,99.615,VALID,-0.0339617,VALID,19.5541,VALID,52,VALID,0.0520833,
2002-11-08, 03:23:00,VALID,916.919,VALID,0.2,VALID,99.6264,VALID,-0.0339617,VALID,19.5645,VALID,52,VALID,0.00735294,
2002-11-08, 03:24:01,VALID,916.919,VALID,0,VALID,99.6302,VALID,-0.0509425,VALID,19.5442,VALID,52,VALID,0.0739183,
2002-11-08, 03:25:00,VALID,916.915,VALID,0,VALID,99.6175,VALID,-0.101885,VALID,19.5285,VALID,52,VALID,0.0219595,
2002-11-08, 03:26:00,VALID,916.919,VALID,0.2,VALID,99.6099,VALID,-0.101885,VALID,19.5057,VALID,54,VALID,0.0728401,
2002-11-08, 03:27:01,VALID,916.925,VALID,0,VALID,99.6239,VALID,-0.0679233,VALID,19.4967,VALID,62,VALID,0.0905449,
2002-11-08, 03:28:00,VALID,916.907,VALID,0,VALID,99.6251,VALID,-0.0339617,VALID,19.4994,VALID,62,VALID,0.0616554,
2002-11-08, 03:29:01,VALID,916.915,VALID,0.2,VALID,99.6353,VALID,-0.0679233,VALID,19.5057,VALID,61,VALID,0.190972,
2002-11-08, 03:30:00,VALID,916.912,VALID,0,VALID,99.6188,VALID,-0.0679233,VALID,19.5154,VALID,51,VALID,0.660156,